Find Starlink 32001

NORAD ID: 60110 Int'l Des: 2024-117 Owner: SPXS Country: US Constellation: starlink operational
LEOCIRCULAR

Live Position

Loading 3D Globe...

About Starlink 32001

Description loading...

Upcoming Passes

Passes for default location (London). Set your location on the main map for personalized predictions.

Altitude History

Loading altitude history...

Two-Line Element Set

1 60110U 24117V 26126.38512264 -.00001233 00000-0 -29533-4 0 9998
2 60110 53.1601 128.8659 0001213 91.5904 268.5236 15.30180464105729
Epoch: May 6, 2026 • Age: 16 hours

Current Status

Altitude 475.1 km
Velocity 7.63 km/s
Sub-Earth Point 12.27°N, 46.93°E
Launch Date Jun 23, 2024
Age 1.8 years
Type internet

Technical Details

Classification Payload
Mass 730.00 kg
Dry Mass 700.00 kg
Total Mass 730.00 kg
Length 0.30 m
Diameter 4.10 m
Span 29.00 m
Shape Box + pan
Manufacturer SPXS
Bus Type Starlink V2M
Phase Status In Orbit
Owner/State SPXS/US

Most Searched